N5JXS Weather Reports


Display with metric or nautical units.
time (UTC)temp
F
wind
direction
speed
MPH
gust
MPH
rain 1hr
in
rain 24hr
in
rain mn
in
humidity
%
barometer
mb
20260906213957 86 349 2.0 2.0 0.00 0.00 0.00 32 1023.9
20260906213451 87 5 1.0 1.0 0.00 0.00 0.00 33 1023.9
20260906212950 86 5 3.0 3.0 0.00 0.00 0.00 34 1024.1
20260906212444 86 6 2.0 2.0 0.00 0.00 0.00 33 1024.1
20260906211940 86 338 2.0 2.0 0.00 0.00 0.00 34 1024.1
20260906211434 85 316 4.0 6.0 0.00 0.00 0.00 34 1024.0
20260906210930 86 32 0.0 1.0 0.00 0.00 0.00 34 1024.2
20260906210425 86 177 2.0 2.0 0.00 0.00 0.00 32 1023.9
20260906205919 86 353 3.0 5.0 0.00 0.00 0.00 34 1024.2
20260906205415 86 29 2.0 2.0 0.00 0.00 0.00 33 1024.2
20260906204911 85 313 2.0 3.0 0.00 0.00 0.00 35 1024.1
20260906204410 86 218 3.0 5.0 0.00 0.00 0.00 34 1024.4
20260906203909 86 345 4.0 5.0 0.00 0.00 0.00 34 1024.7
20260906203404 85 351 3.0 5.0 0.00 0.00 0.00 36 1024.7
20260906202902 84 178 3.0 3.0 0.00 0.00 0.00 35 1024.8
20260906202356 85 72 3.0 5.0 0.00 0.00 0.00 35 1024.7
20260906201856 85 350 2.0 2.0 0.00 0.00 0.00 34 1024.8
20260906201350 85 306 2.0 2.0 0.00 0.00 0.00 34 1024.8
20260906200846 85 346 3.0 3.0 0.00 0.00 0.00 34 1024.7
20260906200342 85 15 0.0 1.0 0.00 0.00 0.00 35 1024.8
20260906195836 83 352 2.0 3.0 0.00 0.00 0.00 35 1024.8
20260906195333 83 323 1.0 2.0 0.00 0.00 0.00 35 1025.1
20260906194829 83 38 0.0 1.0 0.00 0.00 0.00 35 1025.1
20260906194324 83 9 1.0 2.0 0.00 0.00 0.00 34 1025.1
20260906193819 85 341 2.0 2.0 0.00 0.00 0.00 31 1025.2
20260906193314 84 11 3.0 5.0 0.00 0.00 0.00 33 1025.0
20260906192809 84 181 3.0 3.0 0.00 0.00 0.00 33 1025.2
20260906192306 86 355 5.0 6.0 0.00 0.00 0.00 33 1025.1
20260906191803 86 355 4.0 5.0 0.00 0.00 0.00 32 1025.1
20260906191258 86 351 1.0 2.0 0.00 0.00 0.00 31 1025.2
20260906190758 85 0 1.0 2.0 0.00 0.00 0.00 32 1025.5
20260906190252 85 286 3.0 3.0 0.00 0.00 0.00 32 1025.2
20260906185751 84 209 1.0 2.0 0.00 0.00 0.00 34 1025.3
20260906185250 84 24 1.0 1.0 0.00 0.00 0.00 34 1025.6
20260906184745 83 223 4.0 7.0 0.00 0.00 0.00 34 1025.6
20260906184240 84 340 2.0 2.0 0.00 0.00 0.00 33 1025.8
20260906183736 84 3 1.0 1.0 0.00 0.00 0.00 34 1025.8
20260906183233 83 62 2.0 2.0 0.00 0.00 0.00 34 1025.8
20260906182732 84 43 0.0 1.0 0.00 0.00 0.00 34 1026.2
20260906182228 83 344 5.0 7.0 0.00 0.00 0.00 34 1026.2
20260906181723 83 259 1.0 2.0 0.00 0.00 0.00 34 1026.2
20260906181220 83 324 1.0 1.0 0.00 0.00 0.00 34 1026.5
20260906180720 83 25 1.0 2.0 0.00 0.00 0.00 35 1026.3
20260906180214 82 19 3.0 3.0 0.00 0.00 0.00 34 1026.6
20260906175712 82 323 4.0 5.0 0.00 0.00 0.00 35 1026.3
20260906175208 82 335 2.0 3.0 0.00 0.00 0.00 35 1026.6
20260906174706 81 9 1.0 2.0 0.00 0.00 0.00 36 1026.8
20260906174201 80 315 1.0 2.0 0.00 0.00 0.00 36 1026.8
20260906173656 81 22 3.0 5.0 0.00 0.00 0.00 35 1027.0
20260906173152 81 356 1.0 1.0 0.00 0.00 0.00 35 1027.0
20260906172651 81 4 4.0 6.0 0.00 0.00 0.00 36 1026.7
20260906172147 81 4 3.0 5.0 0.00 0.00 0.00 35 1027.0
20260906171646 80 283 1.0 2.0 0.00 0.00 0.00 35 1026.8
20260906171142 80 347 2.0 2.0 0.00 0.00 0.00 36 1027.1
20260906170638 80 18 3.0 5.0 0.00 0.00 0.00 36 1027.0
20260906170137 80 5 3.0 5.0 0.00 0.00 0.00 36 1027.2
20260906165633 79 338 2.0 2.0 0.00 0.00 0.00 36 1027.2
20260906165129 79 18 1.0 2.0 0.00 0.00 0.00 37 1026.8
20260906164627 78 322 1.0 2.0 0.00 0.00 0.00 37 1027.3
20260906164123 78 316 1.0 2.0 0.00 0.00 0.00 38 1027.0
20260906163619 78 36 2.0 2.0 0.00 0.00 0.00 38 1027.2
20260906163115 77 22 2.0 3.0 0.00 0.00 0.00 38 1027.2
20260906162612 79 6 2.0 3.0 0.00 0.00 0.00 36 1027.3
20260906162107 78 27 2.0 2.0 0.00 0.00 0.00 37 1027.1
20260906161601 77 235 2.0 2.0 0.00 0.00 0.00 37 1027.2
20260906161100 77 203 1.0 2.0 0.00 0.00 0.00 37 1027.1
20260906160559 76 251 3.0 3.0 0.00 0.00 0.00 38 1027.2
20260906160058 76 332 2.0 2.0 0.00 0.00 0.00 38 1027.1
20260906155556 75 63 0.0 1.0 0.00 0.00 0.00 39 1027.3
20260906155052 75 45 0.0 0.0 0.00 0.00 0.00 39 1027.1
20260906154547 75 302 1.0 1.0 0.00 0.00 0.00 39 1027.2
20260906154046 74 14 1.0 1.0 0.00 0.00 0.00 39 1027.1
20260906153544 74 338 1.0 2.0 0.00 0.00 0.00 39 1027.1
20260906153040 73 330 3.0 3.0 0.00 0.00 0.00 40 1027.0
20260906152539 73 38 0.0 0.0 0.00 0.00 0.00 42 1027.0
20260906152039 72 48 1.0 2.0 0.00 0.00 0.00 43 1027.0
20260906151534 71 41 1.0 2.0 0.00 0.00 0.00 44 1027.1
20260906151030 71 10 0.0 0.0 0.00 0.00 0.00 45 1026.8
20260906150525 70 161 1.0 2.0 0.00 0.00 0.00 45 1027.2
20260906150020 69 47 0.0 0.0 0.00 0.00 0.00 47 1027.1
20260906145519 69 32 0.0 1.0 0.00 0.00 0.00 48 1027.1
20260906145014 68 66 1.0 1.0 0.00 0.00 0.00 48 1027.0
20260906144508 68 163 1.0 1.0 0.00 0.00 0.00 50 1027.0
20260906144004 68 55 1.0 1.0 0.00 0.00 0.00 50 1027.1
20260906143459 67 66 1.0 1.0 0.00 0.00 0.00 51 1026.6
20260906142955 66 66 1.0 1.0 0.00 0.00 0.00 51 1026.6
20260906142449 66 130 2.0 3.0 0.00 0.00 0.00 52 1026.8
20260906141944 65 48 1.0 1.0 0.00 0.00 0.00 54 1026.7
20260906141443 65 108 2.0 2.0 0.00 0.00 0.00 54 1026.6
20260906140938 64 136 1.0 2.0 0.00 0.00 0.00 55 1026.6
20260906140433 64 88 1.0 2.0 0.00 0.00 0.00 56 1026.7
20260906135931 64 72 1.0 1.0 0.00 0.00 0.00 57 1026.8
20260906135430 63 44 0.0 1.0 0.00 0.00 0.00 57 1026.7
20260906134926 63 47 0.0 1.0 0.00 0.00 0.00 58 1026.8
20260906134421 62 62 0.0 0.0 0.00 0.00 0.00 57 1026.7
20260906133916 62 55 1.0 2.0 0.00 0.00 0.00 58 1026.6
20260906133412 62 61 0.0 1.0 0.00 0.00 0.00 58 1026.5
20260906132907 62 73 1.0 1.0 0.00 0.00 0.00 58 1026.6
20260906132402 62 51 0.0 1.0 0.00 0.00 0.00 58 1026.5
20260906131858 62 83 1.0 2.0 0.00 0.00 0.00 57 1026.5
20260906131353 62 87 2.0 3.0 0.00 0.00 0.00 57 1026.3
20260906130849 62 85 2.0 2.0 0.00 0.00 0.00 57 1026.1
20260906130348 62 73 1.0 2.0 0.00 0.00 0.00 57 1026.3
20260906125847 62 55 3.0 3.0 0.00 0.00 0.00 56 1026.3
20260906125344 62 63 1.0 1.0 0.00 0.00 0.00 56 1026.1
20260906124839 62 101 2.0 2.0 0.00 0.00 0.00 55 1026.3
20260906124336 62 64 1.0 2.0 0.00 0.00 0.00 55 1026.2
20260906123835 63 59 1.0 1.0 0.00 0.00 0.00 55 1026.3
20260906123330 63 58 0.0 1.0 0.00 0.00 0.00 54 1026.1
20260906122829 63 78 1.0 1.0 0.00 0.00 0.00 54 1026.0
20260906122324 63 62 0.0 1.0 0.00 0.00 0.00 54 1026.0
20260906121821 63 188 1.0 1.0 0.00 0.00 0.00 53 1026.3
20260906121317 63 88 1.0 1.0 0.00 0.00 0.00 53 1025.8
20260906120813 64 80 1.0 1.0 0.00 0.00 0.00 53 1026.1
20260906120309 64 124 2.0 3.0 0.00 0.00 0.00 53 1026.2
20260906115805 64 47 0.0 1.0 0.00 0.00 0.00 53 1026.2
20260906115259 64 77 1.0 1.0 0.00 0.00 0.00 53 1026.3
20260906114759 64 129 1.0 2.0 0.00 0.00 0.00 53 1026.1
20260906114254 64 43 1.0 1.0 0.00 0.00 0.00 53 1025.8
20260906113749 64 50 0.0 0.0 0.00 0.00 0.00 52 1026.1
20260906113249 64 63 1.0 1.0 0.00 0.00 0.00 52 1026.0
20260906112749 64 58 0.0 1.0 0.00 0.00 0.00 52 1025.8
20260906112245 64 50 0.0 1.0 0.00 0.00 0.00 52 1025.8
20260906111745 64 143 1.0 1.0 0.00 0.00 0.00 51 1025.7
20260906111244 64 101 1.0 1.0 0.00 0.00 0.00 51 1025.8
20260906110739 64 100 1.0 2.0 0.00 0.00 0.00 51 1025.8
20260906110236 64 51 0.0 0.0 0.00 0.00 0.00 51 1025.8
20260906105734 64 54 0.0 0.0 0.00 0.00 0.00 50 1025.8
20260906105230 65 124 1.0 1.0 0.00 0.00 0.00 50 1025.8
20260906104725 65 78 1.0 1.0 0.00 0.00 0.00 49 1025.8
20260906104224 66 98 1.0 1.0 0.00 0.00 0.00 49 1025.6
20260906103722 65 119 2.0 2.0 0.00 0.00 0.00 49 1025.8
20260906103217 65 109 2.0 2.0 0.00 0.00 0.00 50 1025.7
20260906102712 65 91 1.0 1.0 0.00 0.00 0.00 50 1026.0
20260906102211 65 69 1.0 1.0 0.00 0.00 0.00 50 1026.1
20260906101706 65 108 1.0 1.0 0.00 0.00 0.00 50 1025.7
20260906101201 65 102 1.0 1.0 0.00 0.00 0.00 50 1025.8
20260906100657 65 56 1.0 1.0 0.00 0.00 0.00 50 1026.2
20260906100157 65 104 1.0 1.0 0.00 0.00 0.00 51 1026.0
20260906095652 65 94 1.0 2.0 0.00 0.00 0.00 52 1026.1
20260906095147 65 81 1.0 1.0 0.00 0.00 0.00 52 1026.2
20260906094646 65 65 0.0 1.0 0.00 0.00 0.00 52 1026.3
20260906094142 65 56 0.0 1.0 0.00 0.00 0.00 52 1026.1
20260906093638 65 62 1.0 1.0 0.00 0.00 0.00 53 1026.1
20260906093138 64 97 1.0 1.0 0.00 0.00 0.00 54 1026.2
20260906092632 64 145 1.0 2.0 0.00 0.00 0.00 55 1026.2
20260906092127 64 101 1.0 1.0 0.00 0.00 0.00 56 1025.8
20260906091624 64 106 1.0 2.0 0.00 0.00 0.00 57 1025.8
20260906091120 64 107 1.0 1.0 0.00 0.00 0.00 59 1026.1
20260906090615 64 80 1.0 1.0 0.00 0.00 0.00 61 1026.0
20260906090115 63 107 1.0 2.0 0.00 0.00 0.00 62 1026.0
20260906085614 63 100 1.0 1.0 0.00 0.00 0.00 64 1025.8
20260906085108 64 85 1.0 1.0 0.00 0.00 0.00 65 1026.1
20260906084603 64 126 1.0 2.0 0.00 0.00 0.00 65 1026.0
20260906084102 64 52 0.0 1.0 0.00 0.00 0.00 64 1026.0
20260906083558 64 100 1.0 1.0 0.00 0.00 0.00 64 1026.2
20260906083057 64 67 1.0 1.0 0.00 0.00 0.00 64 1026.1
20260906082553 64 45 1.0 1.0 0.00 0.00 0.00 64 1026.3
20260906082048 64 56 0.0 0.0 0.00 0.00 0.00 63 1026.0
20260906081544 64 46 0.0 0.0 0.00 0.00 0.00 63 1026.1
20260906081039 64 69 1.0 1.0 0.00 0.00 0.00 62 1026.2
20260906080536 64 59 1.0 1.0 0.00 0.00 0.00 62 1026.0
20260906080031 64 62 0.0 1.0 0.00 0.00 0.00 63 1026.1
20260906075525 64 66 0.0 1.0 0.00 0.00 0.00 64 1026.1
20260906075020 64 81 1.0 1.0 0.00 0.00 0.00 65 1026.3
20260906074515 64 64 0.0 0.0 0.00 0.00 0.00 65 1026.2
20260906074014 64 81 1.0 1.0 0.00 0.00 0.00 66 1026.5
20260906073509 64 97 0.0 1.0 0.00 0.00 0.00 67 1026.6
20260906073005 64 80 1.0 1.0 0.00 0.00 0.00 69 1026.2
20260906072500 64 70 1.0 1.0 0.00 0.00 0.00 70 1026.3
20260906071955 64 74 0.0 0.0 0.00 0.00 0.00 70 1026.5
20260906071451 64 74 0.0 0.0 0.00 0.00 0.00 71 1026.7
20260906070947 64 76 0.0 0.0 0.00 0.00 0.00 70 1026.3
20260906070443 64 76 1.0 1.0 0.00 0.00 0.00 70 1026.5
20260906065938 64 92 1.0 1.0 0.00 0.00 0.00 70 1026.3
20260906065438 64 72 0.0 1.0 0.00 0.00 0.00 70 1026.7
20260906064933 64 74 0.0 1.0 0.00 0.00 0.00 70 1026.3
20260906064430 64 99 1.0 1.0 0.00 0.00 0.00 69 1026.6
20260906063924 64 69 1.0 1.0 0.00 0.00 0.00 69 1026.7
20260906063419 64 70 0.0 1.0 0.00 0.00 0.00 69 1026.6
20260906062914 64 63 0.0 1.0 0.00 0.00 0.00 69 1026.6
20260906062409 64 94 1.0 1.0 0.00 0.00 0.00 69 1026.5
20260906061904 64 80 1.0 1.0 0.00 0.00 0.00 70 1026.8
20260906061400 64 89 1.0 1.0 0.00 0.00 0.00 70 1026.3
20260906060854 64 70 0.0 1.0 0.00 0.00 0.00 70 1026.5
20260906060352 64 100 1.0 1.0 0.00 0.00 0.00 70 1026.5
20260906055848 63 103 1.0 1.0 0.00 0.00 0.00 71 1026.2
20260906055343 64 88 1.0 1.0 0.00 0.00 0.00 71 1026.2
20260906054838 64 121 1.0 1.0 0.00 0.00 0.00 71 1026.2
20260906054333 64 155 1.0 1.0 0.00 0.00 0.00 71 1026.2
20260906053830 64 107 1.0 1.0 0.00 0.00 0.00 71 1026.1
20260906053325 64 111 1.0 1.0 0.00 0.00 0.00 70 1025.8
20260906052820 64 164 1.0 1.0 0.00 0.00 0.00 71 1026.2
20260906052317 64 91 1.0 1.0 0.00 0.00 0.00 71 1026.2
20260906051814 64 167 1.0 1.0 0.00 0.00 0.00 71 1026.3
20260906051313 64 144 1.0 1.0 0.00 0.00 0.00 71 1026.1
20260906050809 64 109 1.0 1.0 0.00 0.00 0.00 70 1026.1
20260906050304 65 102 1.0 1.0 0.00 0.00 0.00 70 1026.2
20260906045802 65 115 1.0 1.0 0.00 0.00 0.00 69 1026.2
20260906045257 65 101 1.0 1.0 0.00 0.00 0.00 70 1026.2
20260906044753 65 81 1.0 1.0 0.00 0.00 0.00 70 1026.5
20260906044248 65 100 1.0 1.0 0.00 0.00 0.00 70 1026.6
20260906043744 65 109 1.0 1.0 0.00 0.00 0.00 70 1026.5
20260906043240 65 147 1.0 1.0 0.00 0.00 0.00 70 1026.5
20260906042739 65 107 1.0 1.0 0.00 0.00 0.00 70 1026.8
20260906042238 65 89 1.0 1.0 0.00 0.00 0.00 69 1026.7
20260906041734 65 65 0.0 1.0 0.00 0.00 0.00 69 1026.5
20260906041229 66 56 0.0 0.0 0.00 0.00 0.00 69 1026.6
20260906040725 66 91 1.0 1.0 0.00 0.00 0.00 69 1026.6
20260906040220 66 118 1.0 1.0 0.00 0.00 0.00 69 1026.6
20260906035715 66 35 0.0 0.0 0.00 0.00 0.00 69 1026.6
20260906035211 66 78 1.0 1.0 0.00 0.00 0.00 68 1026.5
20260906034710 66 76 0.0 1.0 0.00 0.00 0.00 68 1026.6
20260906034205 66 71 1.0 1.0 0.00 0.00 0.00 67 1026.8
20260906033701 66 71 0.0 0.0 0.00 0.00 0.00 66 1026.5
20260906033201 67 32 0.0 0.0 0.00 0.00 0.00 66 1026.8
20260906032658 67 41 0.0 0.0 0.00 0.00 0.00 66 1026.7
20260906032152 68 12 0.0 0.0 0.00 0.00 0.00 65 1026.7
20260906031648 68 20 0.0 0.0 0.00 0.00 0.00 64 1026.6
20260906031143 69 22 0.0 0.0 0.00 0.00 0.00 64 1026.5
20260906030642 69 17 1.0 1.0 0.00 0.00 0.00 63 1026.3
20260906030138 69 47 1.0 1.0 0.00 0.00 0.00 63 1026.2
20260906025637 70 7 1.0 1.0 0.00 0.00 0.00 62 1026.0
20260906025136 70 341 0.0 1.0 0.00 0.00 0.00 62 1026.2
20260906024631 70 24 1.0 2.0 0.00 0.00 0.00 61 1026.0
20260906024125 70 12 2.0 2.0 0.00 0.00 0.00 61 1026.1
20260906023621 71 354 1.0 2.0 0.00 0.00 0.00 58 1026.0
20260906023121 71 358 1.0 1.0 0.00 0.00 0.00 53 1025.8
20260906022616 71 22 1.0 1.0 0.00 0.00 0.00 47 1026.1
20260906022112 71 80 1.0 1.0 0.00 0.00 0.00 43 1025.8
20260906021608 70 158 1.0 1.0 0.00 0.00 0.00 38 1025.7
20260906021106 70 143 1.0 1.0 0.00 0.00 0.00 38 1025.2
20260906020606 71 128 1.0 1.0 0.00 0.00 0.00 38 1024.8
20260906020101 71 145 1.0 1.0 0.00 0.00 0.00 37 1025.0
20260906015600 71 139 1.0 1.0 0.00 0.00 0.00 37 1025.3
20260906015059 71 137 1.0 1.0 0.00 0.00 0.00 37 1024.7
20260906014554 71 153 1.0 2.0 0.00 0.00 0.00 37 1025.1
20260906014050 72 150 1.0 2.0 0.00 0.00 0.00 37 1024.8
20260906013545 72 139 1.0 1.0 0.00 0.00 0.00 37 1024.8
20260906013041 73 152 2.0 2.0 0.00 0.00 0.00 36 1024.8
20260906012536 73 163 2.0 2.0 0.00 0.00 0.00 36 1025.1
20260906012035 74 97 1.0 1.0 0.00 0.00 0.00 37 1024.8
20260906011531 75 96 1.0 1.0 0.00 0.00 0.00 36 1024.7
20260906011031 76 81 1.0 1.0 0.00 0.00 0.00 35 1025.1
20260906010526 76 62 0.0 0.0 0.00 0.00 0.00 34 1025.2
20260906010023 77 39 0.0 0.0 0.00 0.00 0.00 33 1025.1
20260906005521 77 45 1.0 2.0 0.00 0.00 0.00 33 1025.1
20260906005020 77 40 0.0 0.0 0.00 0.00 0.00 33 1025.2
20260906004515 77 27 0.0 0.0 0.00 0.00 0.00 34 1025.5
20260906004010 77 17 0.0 0.0 0.00 0.00 0.00 33 1025.3
20260906003505 77 27 0.0 0.0 0.00 0.00 0.00 34 1025.3
20260906003000 76 8 1.0 1.0 0.00 0.00 0.00 34 1025.5
20260906002455 76 27 1.0 1.0 0.00 0.00 0.00 34 1025.3
20260906001950 77 26 0.0 0.0 0.00 0.00 0.00 34 1025.2
20260906001446 77 21 0.0 1.0 0.00 0.00 0.00 34 1025.5
20260906000940 77 20 1.0 1.0 0.00 0.00 0.00 34 1025.2
20260906000436 77 28 1.0 1.0 0.00 0.00 0.00 34 1025.2
20260905235931 78 35 0.0 0.0 0.00 0.00 0.00 34 1025.1
20260905235430 78 40 1.0 1.0 0.00 0.00 0.00 35 1025.1
20260905234925 78 26 1.0 1.0 0.00 0.00 0.00 34 1025.5
20260905234421 78 25 0.0 0.0 0.00 0.00 0.00 34 1025.2
20260905233915 78 4 1.0 1.0 0.00 0.00 0.00 33 1025.2
20260905233410 78 22 1.0 1.0 0.00 0.00 0.00 33 1025.1
20260905232909 79 39 0.0 1.0 0.00 0.00 0.00 32 1025.1
20260905232406 79 23 1.0 1.0 0.00 0.00 0.00 33 1025.3
20260905231900 78 15 1.0 1.0 0.00 0.00 0.00 33 1025.0
20260905231356 79 357 1.0 1.0 0.00 0.00 0.00 32 1025.0
20260905230853 79 38 0.0 1.0 0.00 0.00 0.00 33 1025.1
20260905230350 78 15 1.0 1.0 0.00 0.00 0.00 33 1025.2
20260905225844 79 27 1.0 1.0 0.00 0.00 0.00 31 1024.8
20260905225339 79 61 0.0 1.0 0.00 0.00 0.00 31 1025.0
20260905224834 79 115 2.0 2.0 0.00 0.00 0.00 30 1025.1
20260905224330 78 17 0.0 0.0 0.00 0.00 0.00 31 1025.0
20260905223824 79 37 2.0 2.0 0.00 0.00 0.00 32 1025.3
20260905223322 78 31 1.0 1.0 0.00 0.00 0.00 34 1025.2
20260905222817 78 24 1.0 1.0 0.00 0.00 0.00 33 1024.8
20260905222316 77 36 1.0 1.0 0.00 0.00 0.00 30 1025.3
20260905221812 77 176 1.0 2.0 0.00 0.00 0.00 35 1025.6
20260905221309 77 13 1.0 1.0 0.00 0.00 0.00 34 1025.6
20260905220804 77 20 0.0 0.0 0.00 0.00 0.00 33 1025.6
20260905220300 78 21 0.0 1.0 0.00 0.00 0.00 33 1025.6
20260905215759 78 4 0.0 0.0 0.00 0.00 0.00 32 1025.7
20260905215255 78 343 1.0 2.0 0.00 0.00 0.00 32 1025.8
20260905214751 78 358 1.0 1.0 0.00 0.00 0.00 32 1025.7
20260905214246 79 2 0.0 1.0 0.00 0.00 0.00 33 1025.7